Content
SEND FEEDBACK

Daily
Averages
Monthly
Summary
United States of America

FORESTDALE, MASSACHUSETTS


Home > North America > United States > Massachusetts
Elevation: 131 feet     Latitude: 41 39N     Longitude: 070 31W

WEATHER
 
SELECT A DAY
Number of Records: 269,687;   Date Range: 1/1/95 - 7/29/14
 
SHARE

PRINT THIS DATA

[ ← Previous Day ]
WEATHER ALMANAC - MARCH 14, 2013
[ Next Day → ]
[ °C ]   °F
Weather ElementAverageHighLow
Temperature31.3 °F39.2 °F (11:55 am)24.8 °F (10:35 pm)
Dewpoint15.9 °F26.6 °F (4:55 am)3.2 °F (10:55 pm)
Humidity54.7 %80 % (12:55 am)35 % (3:15 pm)
Barometer29.76 in29.82 in (10:55 pm)29.70 in (2:35 pm)
Wind Speed12.2 mph21.9 mph (10:55 pm)
Wind Gust34.5 mph (10:55 pm)
Weather ElementAverage
Visibility10 mi
Wind DirectionWNW (283.9 °)

Weather ElementTotal
Precipitation---
Heating Degree Days33 (Base 65)
Averaged from 70 records on March 14, 2013
WEATHER CONDITIONS BREAKOUT
WIND DIRECTION BREAKOUT
WEATHER BY HOUR - MARCH 14, 2013
[ °C ]   °F
Local TimeTemperatureDewpointHumidityBarometerVisibilityWind DirectionWind SpeedGust SpeedPrecipitationEventsConditions
12:35 AM30.2 °F23.0 °F75 %29.77 in10.0 miCalmClear
12:55 AM28.4 °F23.0 °F80 %29.77 in10.0 miWNW (300°)3.5 mphClear
1:15 AM28.4 °F23.0 °F80 %29.77 in10.0 miCalmClear
1:35 AM28.4 °F23.0 °F80 %29.77 in10.0 miCalmClear
1:55 AM28.4 °F23.0 °F80 %29.77 in10.0 miWNW (300°)3.5 mphScattered Clouds
2:15 AM30.2 °F23.0 °F75 %29.77 in10.0 miWNW (290°)3.5 mphScattered Clouds
2:35 AM28.4 °F23.0 °F80 %29.77 in10.0 miWNW (290°)3.5 mphMostly Cloudy
2:55 AM30.2 °F23.0 °F75 %29.77 in10.0 miWNW (300°)5.8 mphOvercast
3:15 AM30.2 °F23.0 °F75 %29.77 in10.0 miWest (280°)3.5 mphOvercast
3:35 AM30.2 °F23.0 °F75 %29.77 in10.0 miWest (280°)4.6 mphOvercast
3:55 AM32.0 °F24.8 °F75 %29.77 in10.0 miWNW (300°)6.9 mphOvercast
4:15 AM32.0 °F24.8 °F75 %29.76 in10.0 miWNW (300°)6.9 mphOvercast
4:35 AM32.0 °F24.8 °F75 %29.76 in10.0 miNW (310°)5.8 mphOvercast
4:55 AM32.0 °F26.6 °F80 %29.76 in10.0 miWNW (300°)6.9 mphOvercast
5:15 AM32.0 °F24.8 °F75 %29.77 in10.0 miWNW (300°)6.9 mphMostly Cloudy
5:35 AM32.0 °F23.0 °F69 %29.77 in10.0 miWNW (290°)5.8 mphMostly Cloudy
5:55 AM32.0 °F23.0 °F69 %29.77 in10.0 miWNW (300°)5.8 mphPartly Cloudy
6:15 AM28.4 °F23.0 °F80 %29.77 in10.0 miWNW (290°)8.1 mphClear
6:35 AM32.0 °F23.0 °F69 %29.78 in10.0 miWNW (290°)8.1 mphClear
6:55 AM32.0 °F23.0 °F69 %29.78 in10.0 miWest (280°)11.5 mphPartly Cloudy
7:15 AM32.0 °F23.0 °F69 %29.78 in10.0 miWNW (290°)10.4 mphMostly Cloudy
7:35 AM32.0 °F23.0 °F69 %29.78 in10.0 miWNW (290°)11.5 mphOvercast
7:55 AM33.8 °F23.0 °F65 %29.78 in10.0 miWNW (300°)15.0 mph18.4 mphOvercast
8:15 AM32.0 °F21.2 °F64 %29.79 in10.0 miWNW (290°)9.2 mphOvercast
8:35 AM33.8 °F23.0 °F65 %29.79 in10.0 miWNW (290°)11.5 mph17.3 mphOvercast
8:55 AM33.8 °F23.0 °F65 %29.79 in10.0 miWNW (290°)11.5 mphOvercast
9:35 AM35.6 °F21.2 °F56 %29.79 in10.0 miWest (270°)12.7 mphMostly Cloudy
9:55 AM35.6 °F21.2 °F56 %29.79 in10.0 miWNW (290°)13.8 mphSnowLight Snow
10:15 AM33.8 °F19.4 °F56 %29.78 in10.0 miWest (280°)15.0 mph23.0 mphMostly Cloudy
10:35 AM35.6 °F17.6 °F48 %29.77 in10.0 miWest (280°)12.7 mph18.4 mphScattered Clouds
10:55 AM35.6 °F17.6 °F48 %29.77 in10.0 miWest (280°)11.5 mph17.3 mphOvercast
11:15 AM35.6 °F17.6 °F48 %29.77 in10.0 miWNW (290°)9.2 mphOvercast
11:35 AM35.6 °F17.6 °F48 %29.76 in10.0 miWest (280°)10.4 mph18.4 mphMostly Cloudy
11:55 AM39.2 °F17.6 °F42 %29.75 in10.0 miNW (310°)13.8 mphOvercast
12:15 PM35.6 °F15.8 °F44 %29.74 in10.0 miWNW (290°)8.1 mph19.6 mphOvercast
12:35 PM35.6 °F17.6 °F48 %29.73 in10.0 miNW (320°)10.4 mphOvercast
12:55 PM33.8 °F17.6 °F52 %29.73 in10.0 miWNW (300°)15.0 mph18.4 mphMostly Cloudy
1:15 PM33.8 °F17.6 °F52 %29.72 in9.0 miNW (310°)10.4 mph17.3 mphSnowLight Snow
1:35 PM35.6 °F15.8 °F44 %29.72 in10.0 miNW (310°)12.7 mphOvercast
1:55 PM37.4 °F15.8 °F41 %29.71 in10.0 miWNW (290°)16.1 mph21.9 mphMostly Cloudy
2:15 PM33.8 °F15.8 °F48 %29.71 in10.0 miWest (280°)17.3 mph26.5 mphMostly Cloudy
2:35 PM35.6 °F15.8 °F44 %29.70 in8.0 miWest (280°)9.2 mph21.9 mphSnowLight Snow
2:55 PM35.6 °F12.2 °F38 %29.70 in10.0 miWNW (300°)17.3 mph21.9 mphOvercast
3:15 PM35.6 °F10.4 °F35 %29.71 in10.0 miNW (310°)18.4 mph24.2 mphOvercast
3:35 PM33.8 °F12.2 °F41 %29.71 in10.0 miWNW (290°)13.8 mph23.0 mphOvercast
3:55 PM33.8 °F12.2 °F41 %29.71 in10.0 miWest (280°)16.1 mph26.5 mphOvercast
4:15 PM35.6 °F10.4 °F35 %29.71 in10.0 miWest (280°)17.3 mph25.3 mphOvercast
4:35 PM32.0 °F8.6 °F38 %29.72 in10.0 miWNW (290°)17.3 mphMostly Cloudy
4:55 PM32.0 °F8.6 °F38 %29.72 in10.0 miNW (310°)13.8 mph23.0 mphOvercast
5:15 PM32.0 °F8.6 °F38 %29.72 in10.0 miWNW (300°)16.1 mph20.7 mphOvercast
5:35 PM32.0 °F8.6 °F38 %29.73 in10.0 miWest (280°)18.4 mph23.0 mphOvercast
5:55 PM32.0 °F8.6 °F38 %29.73 in10.0 miWNW (290°)17.3 mph25.3 mphOvercast
6:15 PM32.0 °F8.6 °F38 %29.74 in10.0 miWNW (300°)19.6 mph25.3 mphOvercast
6:35 PM30.2 °F10.4 °F44 %29.75 in10.0 miWNW (300°)18.4 mph24.2 mphOvercast
6:55 PM28.4 °F8.6 °F43 %29.76 in10.0 miWNW (300°)18.4 mph27.6 mphOvercast
7:15 PM28.4 °F8.6 °F43 %29.77 in10.0 miWNW (300°)19.6 mph26.5 mphOvercast
7:35 PM28.4 °F8.6 °F43 %29.78 in10.0 miWNW (290°)19.6 mph24.2 mphOvercast
7:55 PM26.6 °F8.6 °F47 %29.79 in10.0 miNW (310°)17.3 mph21.9 mphOvercast
8:15 PM26.6 °F8.6 °F47 %29.79 in10.0 miNW (310°)16.1 mph26.5 mphMostly Cloudy
8:35 PM26.6 °F6.8 °F43 %29.80 in10.0 miWNW (300°)17.3 mph26.5 mphScattered Clouds
8:55 PM26.6 °F6.8 °F43 %29.80 in10.0 miNW (320°)20.7 mph27.6 mphMostly Cloudy
9:15 PM26.6 °F6.8 °F43 %29.80 in10.0 miWNW (300°)19.6 mph27.6 mphOvercast
9:35 PM26.6 °F6.8 °F43 %29.80 in10.0 miNW (310°)15.0 mph26.5 mphOvercast
9:55 PM26.6 °F6.8 °F43 %29.81 in10.0 miNW (310°)15.0 mph28.8 mphOvercast
10:15 PM26.6 °F5.0 °F40 %29.81 in10.0 miNW (310°)18.4 mph26.5 mphOvercast
10:35 PM24.8 °F6.8 °F46 %29.81 in10.0 miNW (320°)16.1 mph26.5 mphOvercast
10:55 PM24.8 °F3.2 °F40 %29.82 in10.0 miNW (310°)21.9 mph34.5 mphScattered Clouds
11:15 PM24.8 °F3.2 °F40 %29.82 in10.0 miNW (310°)15.0 mph27.6 mphScattered Clouds
11:35 PM24.8 °F3.2 °F40 %29.82 in10.0 miNW (320°)15.0 mph27.6 mphPartly Cloudy
11:55 PM24.8 °F3.2 °F40 %29.82 in10.0 miNW (310°)16.1 mph27.6 mphClear
Hourly data recorded from KFMH, located miles away from Forestdale, Massachusetts







STORIES FROM OUR PARTNERS